Fort Bragg, NC

6:00 PM EDT on March 26, 2017 (GMT -0400)
Simmons Army Air Field

Weather History for KFBG - June, 2014

Change the Weather History Date:

Tuesday, June 10, 2014

  Actual Average Record
Temperature  
Mean Temperature 84 °F -  
Max Temperature 97 °F 83 °F 98 °F (1999)
Min Temperature 71 °F 66 °F 53 °F (1997)
Cooling Degree Days 19    
Growing Degree Days 34 (Base 50)    
Moisture  
Dew Point 68 °F    
Average Humidity 65    
Maximum Humidity 96    
Minimum Humidity 32    
Precipitation  
Precipitation 0.00 in - - ()
Sea Level Pressure  
Sea Level Pressure 29.92 in    
Wind  
Wind Speed 5 mph (SSW)    
Max Wind Speed 12 mph    
Max Gust Speed 17 mph    
Visibility 10 miles    
Events Rain , Thunderstorm    
Averages and records for this station are not official NWS values.
T = Trace of Precipitation, MM = Missing Value Source: NWS Daily Summary

Daily Weather History Graph

Daily Weather History Graph

Search for Another Location

Airport or City:

Trip Planner

Search our weather history database for the weather conditions in past years. The results will help you decide how hot, cold, wet, or windy it might be!

Date:

Astronomy

Jun. 10, 2014 Rise Set
Actual Time 6:00 AM EDT 8:29 PM EDT
Civil Twilight 5:31 AM EDT 8:59 PM EDT
Nautical Twilight 4:54 AM EDT 9:35 PM EDT
Astronomical Twilight 4:14 AM EDT 10:16 PM EDT
Moon 5:58 PM EDT (6/10) 3:59 AM EDT (6/10)
Length of Visible Light 15h 28m
Length of Day
14h 28m
Waxing Gibbous, 92% of the Moon is Illuminated
Jun 10
Waxing Gibbous
Jun 13
Full
Jun 19
Last Quarter
Jun 27
New
Jul 5
First Quarter

Hourly Weather History & Observations

Time (EDT) Temp. Heat Index Dew Point Humidity Pressure Visibility Wind Dir Wind Speed Gust Speed Precip Events Conditions
12:58 AM 74.1 °F - 68.0 °F 81% 29.94 in 10.0 mi ENE 4.6 mph - N/A   Partly Cloudy
1:20 AM 73.4 °F - 68.0 °F 83% 29.93 in 10.0 mi NNE 4.6 mph - N/A Thunderstorm Thunderstorm
1:28 AM 73.4 °F - 68.0 °F 83% 29.93 in 10.0 mi East 5.8 mph - N/A Rain , Thunderstorm Light Thunderstorms and Rain
1:38 AM 71.6 °F - 68.0 °F 88% 29.92 in 10.0 mi NE 5.8 mph - N/A Rain , Thunderstorm Light Rain
1:42 AM 71.6 °F - 69.8 °F 94% 29.92 in 10.0 mi NE 6.9 mph - N/A Thunderstorm Partly Cloudy
1:58 AM 71.6 °F - 68.7 °F 91% 29.91 in 10.0 mi NE 4.6 mph - 0.00 in   Scattered Clouds
2:58 AM 71.6 °F - 69.4 °F 93% 29.91 in 10.0 mi SE 3.5 mph - N/A   Partly Cloudy
3:58 AM 72.0 °F - 70.0 °F 93% 29.91 in 10.0 mi Calm Calm - N/A   Clear
4:58 AM 71.2 °F - 70.2 °F 96% 29.91 in 10.0 mi Calm Calm - N/A   Clear
5:58 AM 71.2 °F - 70.2 °F 96% 29.92 in 10.0 mi Calm Calm - N/A   Clear
6:58 AM 73.6 °F - 71.2 °F 92% 29.94 in 10.0 mi Variable 1.2 mph - N/A   Clear
7:58 AM 76.6 °F - 71.1 °F 83% 29.94 in 10.0 mi SW 5.8 mph - N/A   Clear
8:58 AM 79.9 °F - 71.2 °F 75% 29.92 in 10.0 mi SW 6.9 mph - N/A   Clear
9:58 AM 84.7 °F 89.7 °F 70.7 °F 63% 29.93 in 10.0 mi SSW 3.5 mph - N/A   Clear
10:58 AM 88.2 °F 93.3 °F 70.3 °F 55% 29.94 in 10.0 mi WSW 9.2 mph - N/A   Clear
11:58 AM 93.0 °F 95.9 °F 65.8 °F 41% 29.95 in 10.0 mi WNW 11.5 mph - N/A   Partly Cloudy
12:13 PM 93.2 °F 94.9 °F 64.4 °F 38% 29.94 in 10.0 mi WNW 11.5 mph 17.3 mph N/A   Clear
12:58 PM 93.4 °F 95.6 °F 65.1 °F 39% 29.94 in 10.0 mi Calm Calm - N/A   Partly Cloudy
1:58 PM 95.0 °F 96.5 °F 63.7 °F 35% 29.92 in 10.0 mi Variable 5.8 mph - N/A   Clear
2:58 PM 96.1 °F 97.8 °F 63.5 °F 34% 29.91 in 10.0 mi SSW 5.8 mph - N/A   Clear
3:58 PM 95.7 °F 97.2 °F 63.3 °F 34% 29.90 in 10.0 mi SW 8.1 mph - N/A   Clear
4:58 PM 97.2 °F 98.6 °F 63.1 °F 32% 29.89 in 10.0 mi WSW 4.6 mph - N/A   Clear
5:58 PM 95.7 °F 97.2 °F 62.8 °F 34% 29.88 in 10.0 mi Variable 4.6 mph - N/A   Clear
6:58 PM 94.6 °F 97.8 °F 65.8 °F 39% 29.88 in 10.0 mi South 6.9 mph - N/A   Clear
7:58 PM 91.6 °F 96.7 °F 69.3 °F 48% 29.89 in 10.0 mi South 8.1 mph - N/A   Clear
8:58 PM 89.6 °F 94.7 °F 70.0 °F 52% 29.91 in 10.0 mi Variable 5.8 mph - N/A   Clear
9:58 PM 86.9 °F 92.5 °F 71.1 °F 59% 29.93 in 10.0 mi Variable 6.9 mph - N/A   Clear
10:58 PM 84.7 °F 91.4 °F 73.2 °F 68% 29.94 in 10.0 mi SSW 8.1 mph - N/A   Clear
11:58 PM 83.5 °F 89.1 °F 72.5 °F 69% 29.94 in 10.0 mi South 6.9 mph - N/A   Clear